Imperial, CA

10:43 AM PDT on March 25, 2017 (GMT -0700)
Imperial County

Weather History for KIPL - June, 2012

Change the Weather History Date:

Saturday, June 30, 2012

  Actual Average Record
Temperature  
Mean Temperature 91 °F -  
Max Temperature 109 °F 105 °F 118 °F (1950)
Min Temperature 75 °F 73 °F 63 °F (1952)
Cooling Degree Days 26    
Growing Degree Days 41 (Base 50)    
Moisture  
Dew Point 31 °F    
Average Humidity 13    
Maximum Humidity 36    
Minimum Humidity 4    
Precipitation  
Precipitation 0.00 in - - ()
Sea Level Pressure  
Sea Level Pressure 29.72 in    
Wind  
Wind Speed 10 mph (WSW)    
Max Wind Speed 20 mph    
Max Gust Speed 26 mph    
Visibility 10 miles    
Events      
Averages and records for this station are not official NWS values.
T = Trace of Precipitation, MM = Missing Value Source: NWS Daily Summary

Daily Weather History Graph

Daily Weather History Graph

Search for Another Location

Airport or City:

Trip Planner

Search our weather history database for the weather conditions in past years. The results will help you decide how hot, cold, wet, or windy it might be!

Date:

Astronomy

Jun. 30, 2012 Rise Set
Actual Time 5:37 AM PDT 7:54 PM PDT
Civil Twilight 5:09 AM PDT 8:23 PM PDT
Nautical Twilight 4:34 AM PDT 8:57 PM PDT
Astronomical Twilight 3:56 AM PDT 9:35 PM PDT
Moon 4:57 PM PDT (6/30) 2:32 AM PDT (6/30)
Length of Visible Light 15h 14m
Length of Day
14h 16m
Waxing Gibbous, 88% of the Moon is Illuminated
Jun 30
Waxing Gibbous
Jul 3
Full
Jul 10
Last Quarter
Jul 18
New
Jul 26
First Quarter

Hourly Weather History & Observations

Time (PDT) Temp. Heat Index Dew Point Humidity Pressure Visibility Wind Dir Wind Speed Gust Speed Precip Events Conditions
12:53 AM 84.9 °F - 17.1 °F 8% 29.75 in 10.0 mi West 17.3 mph - N/A   Clear
1:53 AM 84.0 °F - 15.1 °F 8% 29.76 in 10.0 mi West 16.1 mph - N/A   Clear
2:53 AM 77.0 °F - 26.1 °F 15% 29.77 in 10.0 mi WSW 9.2 mph - N/A   Clear
4:53 AM 75.9 °F - 30.0 °F 19% 29.77 in 10.0 mi West 6.9 mph - N/A   Clear
5:53 AM 75.9 °F - 30.0 °F 19% 29.81 in 10.0 mi SW 4.6 mph - N/A   Clear
6:53 AM 82.0 °F - 34.0 °F 18% 29.79 in 10.0 mi SE 4.6 mph - N/A   Clear
7:53 AM 84.9 °F - 33.1 °F 16% 29.80 in 10.0 mi ESE 6.9 mph - N/A   Clear
8:53 AM 88.0 °F 86.9 °F 57.9 °F 36% 29.79 in 10.0 mi SE 8.1 mph - N/A   Clear
9:53 AM 93.9 °F - 51.1 °F 23% 29.78 in 10.0 mi Calm Calm - N/A   Clear
10:53 AM 96.1 °F - 37.0 °F 13% 29.78 in 10.0 mi Calm Calm - N/A   Clear
11:53 AM 100.9 °F - 27.0 °F 7% 29.77 in 10.0 mi Variable 4.6 mph - N/A   Clear
12:53 PM 102.0 °F - 25.0 °F 7% 29.75 in 10.0 mi Variable 3.5 mph - N/A   Clear
1:53 PM 105.1 °F - 24.1 °F 6% 29.73 in 10.0 mi Calm Calm - N/A   Clear
2:53 PM 106.0 °F - 21.0 °F 5% 29.70 in 10.0 mi Calm Calm - N/A   Clear
3:53 PM 107.1 °F - 17.1 °F 4% 29.67 in 10.0 mi Calm Calm - N/A   Clear
4:53 PM 107.1 °F - 21.0 °F 5% 29.65 in 10.0 mi Calm Calm - N/A   Clear
5:53 PM 104.0 °F - 35.1 °F 9% 29.63 in 10.0 mi WSW 19.6 mph 26.5 mph N/A   Clear
6:53 PM 99.0 °F - 33.1 °F 10% 29.64 in 10.0 mi WSW 18.4 mph - N/A   Clear
7:53 PM 93.9 °F - 32.0 °F 11% 29.65 in 10.0 mi WSW 18.4 mph - N/A   Clear
8:53 PM 90.0 °F - 35.1 °F 14% 29.65 in 10.0 mi West 19.6 mph - N/A   Clear
9:53 PM 88.0 °F - 33.1 °F 14% 29.66 in 10.0 mi West 17.3 mph - N/A   Clear
10:53 PM 87.8 °F - 35.6 °F 16% 29.66 in 10.0 mi West 19.6 mph - N/A   Clear
11:53 PM 84.9 °F - 37.9 °F 19% 29.66 in 10.0 mi West 13.8 mph - N/A   Clear